When you browse on this site, cookies collect data to enhance your experience and personalize the content and advertising you see.
Visit our Privacy Policy to learn more. By continuing to use the site, you agree to this use of cookies and data.
  • în România
  • Lista ţărilor
  • Pe 7 zile
  • Temperatura apei
  • Meteo pe hartă
  • Widget-uri
  • user-avatar
    Intrare

    Meteo pe oră la Barinas

    Astăzi, 22 Ianuarie, Miercuri

    Timp Temperatura Precipitaţii Vânt Presiune Umiditate
    00:00 +27°C° 0 mm 1 m/s 742 mmHg 67%
    01:00 +27°C° 0 mm 2 m/s 742 mmHg 68%
    02:00 +27°C° 0 mm 1 m/s 742 mmHg 68%
    03:00 +26°C° 0 mm 1 m/s 742 mmHg 68%
    04:00 +26°C° 0 mm 1 m/s 742 mmHg 69%
    05:00 +26°C° 0 mm 1 m/s 742 mmHg 68%
    06:00 +27°C° 0 mm 1 m/s 742 mmHg 67%
    07:00 +27°C° 0 mm 1 m/s 743 mmHg 66%
    08:00 +29°C° 0 mm 2 m/s 743 mmHg 61%
    09:00 +30°C° 0 mm 2 m/s 744 mmHg 56%
    10:00 +32°C° 0 mm 2 m/s 744 mmHg 51%
    11:00 +34°C° 0 mm 2 m/s 743 mmHg 49%
    12:00 +35°C° 0 mm 2 m/s 742 mmHg 46%
    13:00 +36°C° 0 mm 3 m/s 742 mmHg 44%
    14:00 +36°C° 0 mm 2 m/s 741 mmHg 44%
    15:00 +36°C° 0 mm 2 m/s 740 mmHg 45%
    16:00 +36°C° 0 mm 2 m/s 740 mmHg 45%
    17:00 +34°C° 0 mm 2 m/s 740 mmHg 50%
    18:00 +32°C° 0 mm 2 m/s 741 mmHg 55%
    19:00 +30°C° 0 mm 2 m/s 741 mmHg 60%
    20:00 +30°C° 0 mm 2 m/s 742 mmHg 62%
    21:00 +29°C° 0 mm 2 m/s 742 mmHg 65%
    22:00 +28°C° 0 mm 2 m/s 742 mmHg 68%
    23:00 +28°C° 0 mm 2 m/s 742 mmHg 67%

    Mâine, 23 Ianuarie, Joi

    Timp Temperatura Precipitaţii Vânt Presiune Umiditate
    00:00 +28°C° 0 mm 1 m/s 742 mmHg 66%
    01:00 +28°C° 0 mm 1 m/s 742 mmHg 65%
    02:00 +27°C° 0 mm 1 m/s 741 mmHg 65%
    03:00 +27°C° 0 mm 1 m/s 741 mmHg 65%
    04:00 +27°C° 0 mm 1 m/s 741 mmHg 65%
    05:00 +27°C° 0 mm 1 m/s 741 mmHg 66%
    06:00 +27°C° 0 mm 1 m/s 742 mmHg 68%
    07:00 +27°C° 0 mm 2 m/s 743 mmHg 69%
    08:00 +29°C° 0 mm 2 m/s 743 mmHg 63%
    09:00 +31°C° 0 mm 2 m/s 743 mmHg 57%
    10:00 +34°C° 0 mm 2 m/s 744 mmHg 51%
    11:00 +35°C° 0 mm 2 m/s 743 mmHg 49%
    12:00 +34°C° 0 mm 1 m/s 742 mmHg 47%
    13:00 +35°C° 0 mm 1 m/s 741 mmHg 45%
    14:00 +35°C° 0.1 mm 1 m/s 741 mmHg 45%
    15:00 +35°C° 0.1 mm 1 m/s 740 mmHg 46%
    16:00 +35°C° 0.1 mm 1 m/s 739 mmHg 46%
    17:00 +33°C° 0.1 mm 1 m/s 740 mmHg 52%
    18:00 +32°C° 0.1 mm 1 m/s 740 mmHg 57%
    19:00 +30°C° 0.1 mm 2 m/s 741 mmHg 62%
    20:00 +30°C° 0 mm 1 m/s 741 mmHg 64%
    21:00 +29°C° 0 mm 1 m/s 742 mmHg 65%
    22:00 +29°C° 0 mm 1 m/s 742 mmHg 66%
    23:00 +28°C° 0 mm 1 m/s 742 mmHg 67%

    Poimâine, 24 Ianuarie, Vineri

    Timp Temperatura Precipitaţii Vânt Presiune Umiditate
    00:00 +28°C° 0 mm 1 m/s 742 mmHg 68%
    01:00 +27°C° 0 mm 1 m/s 741 mmHg 69%
    02:00 +27°C° 0 mm 1 m/s 741 mmHg 70%
    03:00 +27°C° 0 mm 1 m/s 741 mmHg 70%
    04:00 +26°C° 0 mm 1 m/s 741 mmHg 70%
    05:00 +26°C° 0 mm 1 m/s 742 mmHg 71%
    06:00 +27°C° 0 mm 1 m/s 743 mmHg 72%
    07:00 +27°C° 0 mm 1 m/s 743 mmHg 73%
    08:00 +29°C° 0 mm 1 m/s 744 mmHg 66%
    09:00 +31°C° 0 mm 1 m/s 744 mmHg 59%
    10:00 +33°C° 0 mm 1 m/s 744 mmHg 52%
    11:00 +34°C° 0 mm 1 m/s 743 mmHg 49%
    12:00 +36°C° 0 mm 2 m/s 743 mmHg 46%
    13:00 +37°C° 0 mm 2 m/s 742 mmHg 43%
    14:00 +37°C° 0.1 mm 2 m/s 741 mmHg 45%
    15:00 +36°C° 0.1 mm 2 m/s 741 mmHg 46%
    16:00 +36°C° 0.1 mm 2 m/s 740 mmHg 48%
    17:00 +33°C° 0 mm 1 m/s 741 mmHg 51%
    18:00 +32°C° 0 mm 1 m/s 741 mmHg 55%
    19:00 +31°C° 0 mm 1 m/s 742 mmHg 59%
    20:00 +30°C° 0 mm 1 m/s 742 mmHg 59%
    21:00 +30°C° 0 mm 1 m/s 743 mmHg 59%
    22:00 +29°C° 0 mm 1 m/s 743 mmHg 59%
    23:00 +28°C° 0 mm 1 m/s 743 mmHg 61%

    25 Ianuarie, Sâmbătă

    Timp Temperatura Precipitaţii Vânt Presiune Umiditate
    00:00 +27°C° 0 mm 1 m/s 743 mmHg 63%
    01:00 +27°C° 0 mm 1 m/s 743 mmHg 64%
    02:00 +26°C° 0 mm 1 m/s 743 mmHg 65%
    03:00 +26°C° 0 mm 1 m/s 742 mmHg 66%
    04:00 +25°C° 0 mm 1 m/s 742 mmHg 67%
    05:00 +26°C° 0 mm 1 m/s 743 mmHg 66%
    06:00 +26°C° 0 mm 1 m/s 744 mmHg 65%
    07:00 +26°C° 0 mm 1 m/s 744 mmHg 64%
    08:00 +28°C° 0 mm 2 m/s 745 mmHg 59%
    09:00 +30°C° 0 mm 2 m/s 745 mmHg 54%
    10:00 +32°C° 0 mm 2 m/s 745 mmHg 49%
    11:00 +34°C° 0 mm 3 m/s 744 mmHg 44%
    12:00 +35°C° 0 mm 3 m/s 744 mmHg 40%
    13:00 +36°C° 0 mm 3 m/s 743 mmHg 36%
    14:00 +36°C° 0 mm 3 m/s 742 mmHg 36%
    15:00 +36°C° 0 mm 2 m/s 742 mmHg 37%
    16:00 +36°C° 0 mm 2 m/s 741 mmHg 38%
    17:00 +34°C° 0 mm 2 m/s 742 mmHg 43%
    18:00 +31°C° 0 mm 1 m/s 742 mmHg 48%
    19:00 +29°C° 0 mm 1 m/s 742 mmHg 53%
    20:00 +29°C° 0 mm 1 m/s 743 mmHg 55%
    21:00 +28°C° 0 mm 1 m/s 743 mmHg 57%
    22:00 +28°C° 0 mm 1 m/s 744 mmHg 59%
    23:00 +28°C° 0 mm 1 m/s 743 mmHg 60%

    26 Ianuarie, Duminică

    Timp Temperatura Precipitaţii Vânt Presiune Umiditate
    00:00 +27°C° 0 mm 1 m/s 743 mmHg 61%
    01:00 +27°C° 0 mm 1 m/s 742 mmHg 62%
    02:00 +26°C° 0 mm 1 m/s 742 mmHg 63%
    03:00 +26°C° 0 mm 1 m/s 742 mmHg 63%
    04:00 +26°C° 0 mm 1 m/s 742 mmHg 63%
    05:00 +26°C° 0 mm 1 m/s 743 mmHg 62%
    06:00 +26°C° 0 mm 1 m/s 744 mmHg 62%
    07:00 +27°C° 0 mm 1 m/s 744 mmHg 61%
    08:00 +29°C° 0 mm 2 m/s 744 mmHg 55%
    09:00 +31°C° 0 mm 2 m/s 745 mmHg 49%
    10:00 +34°C° 0 mm 3 m/s 745 mmHg 43%
    11:00 +35°C° 0 mm 3 m/s 744 mmHg 42%
    12:00 +36°C° 0 mm 3 m/s 743 mmHg 40%
    13:00 +37°C° 0 mm 3 m/s 743 mmHg 38%
    14:00 +37°C° 0 mm 3 m/s 742 mmHg 39%
    15:00 +36°C° 0 mm 3 m/s 742 mmHg 40%
    16:00 +36°C° 0 mm 2 m/s 741 mmHg 40%
    17:00 +34°C° 0 mm 2 m/s 741 mmHg 46%
    18:00 +32°C° 0 mm 2 m/s 742 mmHg 51%
    19:00 +30°C° 0 mm 1 m/s 742 mmHg 57%
    20:00 +30°C° 0.1 mm 1 m/s 743 mmHg 59%
    21:00 +29°C° 0.1 mm 1 m/s 743 mmHg 62%
    22:00 +29°C° 0.1 mm 1 m/s 744 mmHg 64%
    23:00 +28°C° 0 mm 1 m/s 743 mmHg 65%

    27 Ianuarie, Luni

    Timp Temperatura Precipitaţii Vânt Presiune Umiditate
    00:00 +28°C° 0 mm 1 m/s 743 mmHg 66%
    01:00 +28°C° 0 mm 1 m/s 743 mmHg 67%
    02:00 +28°C° 0 mm 1 m/s 743 mmHg 68%
    03:00 +27°C° 0 mm 1 m/s 742 mmHg 70%
    04:00 +27°C° 0 mm 1 m/s 742 mmHg 71%
    05:00 +27°C° 0.1 mm 1 m/s 743 mmHg 71%
    06:00 +27°C° 0.1 mm 1 m/s 744 mmHg 71%
    07:00 +27°C° 0.1 mm 1 m/s 744 mmHg 72%
    08:00 +29°C° 0.1 mm 1 m/s 745 mmHg 65%
    09:00 +31°C° 0.1 mm 2 m/s 745 mmHg 57%
    10:00 +32°C° 0.1 mm 2 m/s 745 mmHg 50%
    11:00 +34°C° 0 mm 2 m/s 744 mmHg 47%
    12:00 +35°C° 0 mm 2 m/s 744 mmHg 44%
    13:00 +36°C° 0 mm 2 m/s 743 mmHg 41%
    14:00 +36°C° 0 mm 2 m/s 742 mmHg 41%
    15:00 +36°C° 0 mm 2 m/s 741 mmHg 41%
    16:00 +36°C° 0 mm 2 m/s 741 mmHg 41%
    17:00 +34°C° 0 mm 2 m/s 741 mmHg 45%
    18:00 +32°C° 0 mm 1 m/s 741 mmHg 50%
    19:00 +30°C° 0 mm 1 m/s 742 mmHg 55%
    20:00 +29°C° 0 mm 1 m/s 742 mmHg 57%
    21:00 +29°C° 0 mm 1 m/s 743 mmHg 59%
    22:00 +28°C° 0 mm 1 m/s 743 mmHg 61%
    23:00 +28°C° 0 mm 1 m/s 743 mmHg 62%
    Arată mai mult